Flight Track Log - Related Links

Times and Time Zones

All times are in EDT time to prevent confusion due to time zone crossing. See the AWI3680 flight status page for this flight to view local times or setup timezone preferences in your user account.

Time Position Orientation Groundspeed Altitude Reporting Facility
EDT Latitude Longitude Course Direction KTS MPH feet Rate Location/Type
Mon 08:25:52 PM 39.8500 -75.2833 105° East 162 186 800  Level Philadelphia TRACON
Mon 08:26:52 PM 39.8167 -75.3167 218° Southwest 200 230 2,700 2,316 Climbing Philadelphia TRACON
Mon 08:27:46 PM 39.7667 -75.3500 207° Southwest 207 238 5,200 2,526 Climbing Philadelphia TRACON
Mon 08:28:00 PM 39.8264 -74.9696 123° Southeast  Level FlightAware Approximate
Mon 08:28:46 PM 39.7167 -75.3333 166° South 244 281 7,500  Level Philadelphia TRACON
Mon 08:29:00 PM 39.8167 -74.8809 90° East  Level FlightAware Approximate
Mon 08:29:46 PM 39.7333 -75.2500 75° East 275 316 9,100  Level Philadelphia TRACON
Mon 08:30:00 PM 39.8016 -74.7910 105° East  Level FlightAware Approximate
Mon 08:30:52 PM 39.7500 -75.1333 79° East 339 390 10,100  Level Philadelphia TRACON
Mon 08:31:00 PM 39.7836 -74.7016 105° East  Level FlightAware Approximate
Mon 08:32:28 PM 39.7647 -74.9381 84° East 368 423 12,000  Level New York Center
Mon 08:33:29 PM 39.7844 -74.7933 80° East 383 441 12,200 787 Climbing New York Center
Mon 08:34:30 PM 39.8428 -74.6722 58° Northeast 389 448 13,600 1,424 Climbing New York Center
Mon 08:35:27 PM 39.9331 -74.5825 37° Northeast 379 436 15,000 1,590 Climbing New York Center
Mon 08:36:27 PM 40.0283 -74.4767 40° Northeast 391 450 16,700 1,438 Climbing New York Center
Mon 08:37:28 PM 40.1106 -74.3750 43° Northeast 399 459 17,900 1,190 Climbing New York Center
Mon 08:38:28 PM 40.1800 -74.2836 45° Northeast 405 466 19,100 1,091 Climbing New York Center
Mon 08:39:29 PM 40.2603 -74.1817 44° Northeast 400 460 20,100 1,008 Climbing New York Center
Mon 08:40:27 PM 40.3403 -74.0794 44° Northeast 395 455 21,100 1,008 Climbing New York Center
Mon 08:41:28 PM 40.4222 -73.9744 44° Northeast 395 455 22,100 1,180 Climbing New York Center
Mon 08:42:29 PM 40.5100 -73.8939 35° Northeast 389 448 23,500 588 Climbing New York Center
Mon 08:44:42 PM 40.7508 -73.8894 North 402 463 24,000 147 Climbing Boston Center
Mon 08:45:53 PM 40.8969 -73.8844 North 423 487 24,000  Level Boston Center
Mon 08:46:53 PM 41.0469 -73.8933 357° North 434 499 24,000 -250 Level Boston Center
Mon 08:47:53 PM 41.1758 -73.9072 355° North 452 520 23,500 -650 Descending Boston Center
Mon 08:48:53 PM 41.3053 -73.8992 North 459 528 22,700 -750 Descending Boston Center
Mon 08:49:53 PM 41.4136 -73.8961 North 428 493 22,000 -750 Descending Boston Center
Mon 08:50:53 PM 41.5261 -73.8903 North 405 466 21,200 -1,100 Descending Boston Center
Mon 08:51:53 PM 41.6367 -73.8844 North 400 460 19,800 -1,900 Descending Boston Center
Mon 08:52:53 PM 41.7389 -73.8756 North 380 437 17,400 -2,220 Descending Boston Center
Mon 08:53:33 PM 41.8058 -73.8661 North 379 436 16,100 -1,537 Descending Boston Center
Mon 08:54:15 PM 41.8747 -73.8619 North 342 394 15,300 -1,650 Descending Boston Center
Mon 08:54:53 PM 41.9311 -73.8353 19° North 344 396 13,900 -1,959 Descending Boston Center
Mon 08:55:53 PM 42.0194 -73.7842 23° Northeast 337 388 12,100 -1,867 Descending Boston Center
Mon 08:56:23 PM 42.0614 -73.7600 23° Northeast 339 390 11,100 -1,000 Descending Boston Center
Mon 08:56:53 PM 42.1053 -73.7525 North 331 381 11,100  Level Boston Center
Mon 08:57:23 PM 42.1489 -73.7589 354° North 318 366 11,100  Level Boston Center
Mon 08:57:53 PM 42.1947 -73.7656 354° North 317 365 11,100 -295 Level Boston Center
Mon 08:58:24 PM 42.2406 -73.7667 359° North 328 377 10,800 -1,469 Descending Boston Center
Mon 08:59:31 PM 42.3342 -73.7797 354° North 288 331 8,700 -1,835 Descending Boston Center
Mon 09:00:25 PM 42.3986 -73.7839 357° North 278 320 7,100 -1,930 Descending Boston Center
Mon 09:01:26 PM 42.4797 -73.7942 355° North 273 314 5,000 -1,922 Descending Boston Center
Mon 09:02:33 PM 42.5589 -73.7986 358° North 262 302 3,000 -1,388 Descending Boston Center
Mon 09:03:27 PM 42.6153 -73.8028 357° North 206 237 2,200 -626 Descending Boston Center
Mon 09:04:28 PM 42.6611 -73.8036 359° North 151 174 1,800 -595 Descending Boston Center
Mon 09:05:28 PM 42.7006 -73.8075 356° North 139 160 1,000 -783 Descending Boston Center
Mon 09:06:23 PM 42.7403 -73.8083 359° North 151 174 300 -764 Descending Boston Center

Login

Don't have an account? Register now (free) for customized features, flight alerts, and more!